Summerland, British Columbia

5:23 PM PDT on July 27, 2017 (GMT -0700)
Summerland

Weather History for CWUS - April, 2013

Change the Weather History Date:

Thursday, April 25, 2013

  Actual Average (CYYF) Record (CYYF)
Temperature  
Mean Temperature 56 °F -  
Max Temperature 73 °F 61 °F 78 °F (2005)
Min Temperature 39 °F 38 °F 32 °F (1998)
Degree Days  
Heating Degree Days 9    
Growing Degree Days 6 (Base 50)    
Moisture  
Dew Point 30 °F    
Average Humidity 36    
Maximum Humidity 61    
Minimum Humidity 11    
Precipitation  
Precipitation 0.00 in - - ()
Sea Level Pressure  
Sea Level Pressure 29.96 in    
Wind  
Wind Speed 4 mph ()    
Max Wind Speed 8 mph    
Max Gust Speed -    
Averages and records for this station are not official NWS values.
T = Trace of Precipitation, MM = Missing Value Source: Averaged Metar Reports

Daily Weather History Graph

Daily Weather History Graph

Search for Another Location

Airport or City:

Trip Planner

Search our weather history database for the weather conditions in past years. The results will help you decide how hot, cold, wet, or windy it might be!

Date:

Astronomy

Apr. 25, 2013 Rise Set
Actual Time 5:46 AM PDT 8:07 PM PDT
Civil Twilight 5:11 AM PDT 8:43 PM PDT
Nautical Twilight 4:26 AM PDT 9:27 PM PDT
Astronomical Twilight 3:36 AM PDT 10:19 PM PDT
Moon 8:30 PM PDT (4/25) 5:33 AM PDT (4/25)
Length of Visible Light 15h 31m
Length of Day
14h 21m
Full, 100% of the Moon is Illuminated
Apr 25
Full
Apr 25
Full
May 2
Last Quarter
May 9
New
May 17
First Quarter

Hourly Weather History & Observations

Time (PDT) Temp. Windchill Dew Point Humidity Pressure Visibility Wind Dir Wind Speed Gust Speed Precip Events Conditions
12:00 AM 51.1 °F - 26.1 °F 38% 29.96 in - West 4.6 mph - N/A   Unknown
1:00 AM 44.8 °F 43.3 °F 27.5 °F 51% 29.97 in - West 3.5 mph - N/A   Unknown
2:00 AM 43.9 °F 42.3 °F 27.3 °F 52% 29.97 in - West 3.5 mph - N/A   Unknown
3:00 AM 44.8 °F - 27.1 °F 50% 29.97 in - SE 1.2 mph - N/A   Unknown
4:00 AM 42.4 °F 40.7 °F 27.5 °F 56% 29.97 in - West 3.5 mph - N/A   Unknown
5:00 AM 41 °F - 28 °F 48% 29.97 in - West 4.6 mph - -  
5:00 AM 40.8 °F 37.8 °F 27.9 °F 60% 29.97 in - West 4.6 mph - N/A   Unknown
6:00 AM 40.5 °F 38.4 °F 27.9 °F 61% 29.99 in - West 3.5 mph - N/A   Unknown
7:00 AM 45.0 °F 41.8 °F 29.5 °F 55% 29.99 in - WNW 5.8 mph - N/A   Unknown
8:00 AM 54.0 °F - 30.0 °F 40% 29.99 in - SE 3.5 mph - N/A   Unknown
9:00 AM 54.9 °F - 32.0 °F 42% 29.99 in - ESE 4.6 mph - N/A   Unknown
10:00 AM 59.2 °F - 30.4 °F 34% 29.98 in - ESE 4.6 mph - N/A   Unknown
11:00 AM 64 °F - 30 °F 17% 29.98 in - SE 3.5 mph - -  
11:00 AM 63.5 °F - 30.0 °F 28% 29.98 in - SE 3.5 mph - N/A   Unknown
12:00 PM 65.8 °F - 30.6 °F 27% 29.96 in - ESE 5.8 mph - N/A   Unknown
1:00 PM 68.4 °F - 28.4 °F 22% 29.95 in - SE 6.9 mph - N/A   Unknown
2:00 PM 70.0 °F - 29.3 °F 22% 29.94 in - ESE 8.1 mph - N/A   Unknown
3:00 PM 72.1 °F - 26.4 °F 18% 29.93 in - ESE 4.6 mph - N/A   Unknown
4:00 PM 72.1 °F - 27.5 °F 19% 29.91 in - ESE 5.8 mph - N/A   Unknown
5:00 PM 72 °F - 29 °F 11% 29.91 in - ESE 5.8 mph - -  
5:00 PM 72.0 °F - 28.6 °F 20% 29.91 in - ESE 5.8 mph - N/A   Unknown
6:00 PM 72.1 °F - 29.8 °F 21% 29.91 in - SE 2.3 mph - N/A   Unknown
7:00 PM 71.1 °F - 33.3 °F 25% 29.92 in - NNW 3.5 mph - N/A   Unknown
8:00 PM 67.1 °F - 33.6 °F 29% 29.94 in - West 4.6 mph - N/A   Unknown
9:00 PM 60.8 °F - 34.7 °F 38% 29.98 in - NNW 3.5 mph - N/A   Unknown
10:00 PM 56.1 °F - 34.7 °F 45% 30.01 in - West 5.8 mph - N/A   Unknown
11:00 PM 55 °F - 35 °F 34% 30.02 in - WNW 1.2 mph - -  
11:00 PM 55.0 °F - 34.5 °F 46% 30.02 in - WNW 1.2 mph - N/A   Unknown